Weather History for Moline, IL

Change the Weather History Date:

Thursday, September 29, 2011

  Actual Average Record
Temperature  
Mean Temperature 60 °F 60 °F  
Max Temperature 73 °F 71 °F 99 °F (1953)
Min Temperature 47 °F 48 °F 30 °F (1984)
Degree Days  
Heating Degree Days 5 7  
Month to date heating degree days 158 89  
Since 1 July heating degree days 158 97  
Cooling Degree Days 0 1  
Month to date cooling degree days 67 106  
Year to date cooling degree days 1115 989  
Growing Degree Days 10 (Base 50)    
Moisture  
Dew Point 47 °F    
Average Humidity 61    
Maximum Humidity 93    
Minimum Humidity 29    
Precipitation  
Precipitation 0.03 in 0.08 in 1.19 in (1893)
Month to date precipitation 2.66 3.00  
Year to date precipitation 27.06 30.16  
Snow  
Snow 0.00 in 0.00 in - ()
Month to date snowfall 0.0 0.0  
Since 1 July snowfall 0.0 0.0  
Since 1 September snowfall 0.0 0.0  
Snow Depth 0.00 in    
Sea Level Pressure  
Sea Level Pressure 29.81 in    
Wind  
Wind Speed 13 mph (WNW)    
Max Wind Speed 39 mph    
Max Gust Speed 51 mph    
Visibility 9 miles    
Events Rain    
T = Trace of Precipitation, MM = Missing Value Source: NWS Daily Summary

Daily Weather History Graph

Daily Weather History Graph

Search for Another Location

Airport:

Trip Planner

Search our weather history database for the weather conditions in past years. The results will help you decide how hot, cold, wet, or windy it might be!

Date:

Astronomy

Sep. 29, 2011 Rise Set
Actual Time 6:56 AM CDT 6:47 PM CDT
Civil Twilight 6:28 AM CDT 7:15 PM CDT
Nautical Twilight 5:56 AM CDT 7:47 PM CDT
Astronomical Twilight 5:24 AM CDT 8:19 PM CDT
Moon 9:44 AM CDT (9/29) 7:57 PM CDT (9/29)
Length of Visible Light 12h 46m
Length of Day
11h 51m
Waxing Crescent, 7% of the Moon is Illuminated
Sep 29
Waxing Crescent
Oct 3
First Quarter
Oct 11
Full
Oct 19
Last Quarter
Oct 26
New

Hourly Weather History & Observations

Time (CDT) Temp. Dew Point Humidity Pressure Visibility Wind Dir Wind Speed Gust Speed Precip Events Conditions
12:52 AM 50.0 °F 48.9 °F 96% 29.83 in 7.0 mi Calm Calm - N/A   Clear
4:52 AM 48.2 °F 46.4 °F 93% 29.81 in 7.0 mi Calm Calm - N/A   Clear
5:52 AM 50.0 °F 48.2 °F 94% 29.80 in 7.0 mi Calm Calm - N/A   Clear
6:52 AM 51.8 °F 48.2 °F 88% 29.76 in 10.0 mi Calm Calm - N/A   Clear
7:52 AM 55.4 °F 53.6 °F 94% 29.77 in 10.0 mi SW 4.6 mph - N/A   Clear
8:52 AM 60.8 °F 55.4 °F 82% 29.76 in 10.0 mi West 10.4 mph - N/A   Clear
9:52 AM 64.4 °F 55.4 °F 73% 29.77 in 10.0 mi WNW 9.2 mph - N/A   Mostly Cloudy
10:52 AM 66.9 °F 54.0 °F 63% 29.79 in 10.0 mi WNW 11.5 mph - N/A   Overcast
11:52 AM 61.0 °F 53.1 °F 75% 29.83 in 10.0 mi WNW 16.1 mph 24.2 mph 0.00 in Rain Light Rain
12:52 PM 59.0 °F 53.1 °F 81% 29.82 in 7.0 mi West 9.2 mph - 0.02 in Rain Light Rain
1:52 PM 63.0 °F 55.0 °F 75% 29.79 in 10.0 mi West 15.0 mph 20.7 mph 0.01 in   Clear
2:52 PM 70.0 °F 48.9 °F 47% 29.76 in 10.0 mi West 19.6 mph 27.6 mph N/A   Clear
3:52 PM 72.0 °F 37.9 °F 29% 29.75 in 10.0 mi WNW 27.6 mph 41.4 mph N/A   Scattered Clouds
4:52 PM 70.0 °F 39.0 °F 32% 29.76 in 10.0 mi WNW 28.8 mph 41.4 mph N/A   Mostly Cloudy
5:52 PM 66.0 °F 41.0 °F 40% 29.79 in 10.0 mi WNW 31.1 mph 49.5 mph N/A   Mostly Cloudy
6:52 PM 63.0 °F 43.0 °F 48% 29.84 in 10.0 mi WNW 18.4 mph 31.1 mph N/A   Overcast
7:52 PM 62.1 °F 43.0 °F 50% 29.85 in 10.0 mi WNW 15.0 mph 26.5 mph N/A   Overcast
8:52 PM 62.1 °F 43.0 °F 50% 29.85 in 10.0 mi WNW 21.9 mph 32.2 mph N/A   Overcast
9:52 PM 61.0 °F 42.1 °F 50% 29.86 in 10.0 mi WNW 21.9 mph 33.4 mph N/A   Mostly Cloudy
10:52 PM 60.1 °F 42.1 °F 51% 29.89 in 10.0 mi WNW 19.6 mph 27.6 mph N/A   Scattered Clouds
11:52 PM 59.0 °F 39.9 °F 49% 29.91 in 10.0 mi NNW 12.7 mph 31.1 mph N/A   Clear